This is the latest recevied weather packets stored in our database for station/object EA6AMI-5. If no packets are shown the sender has not sent any weather packets the latest 10 day(s).
| Time | Temp. | Humidity | Pressure | Rain* | Wind** | Luminosity | Snow |
|---|---|---|---|---|---|---|---|
| 1787730303 | 27.22° C | 49% | 1016.1 hPa | 0 mm | - | 55 W/m² | - |
| 1787729764 | 26.67° C | 51% | 1015.4 hPa | 0 mm | - | 139 W/m² | - |
| 1787729223 | 26.67° C | 52% | 1015.3 hPa | 0 mm | - | 136 W/m² | - |
| 1787728684 | 26.67° C | 52% | 1014.7 hPa | 0 mm | - | 109 W/m² | - |
| 1787728143 | 26.67° C | 52% | 1014.8 hPa | 0 mm | - | 63 W/m² | - |
| 1787727603 | 26.11° C | 53% | 1014.7 hPa | 0 mm | - | 95 W/m² | - |
| 1787727243 | 26.11° C | 53% | 1014.4 hPa | 0 mm | - | 62 W/m² | - |
| 1787726703 | 26.11° C | 52% | 1014.4 hPa | 0 mm | - | 74 W/m² | - |
| 1787726163 | 26.11° C | 52% | 1015.3 hPa | 0 mm | - | 85 W/m² | - |
| 1787725624 | 25.56° C | 51% | 1014.2 hPa | 0 mm | - | 48 W/m² | - |
| 1787725083 | 25.56° C | 50% | 1014.3 hPa | 0 mm | - | 36 W/m² | - |
| 1787724543 | 25.56° C | 49% | 1014.5 hPa | 0 mm | - | 21 W/m² | - |
| 1787724004 | 26.11° C | 48% | 1014.4 hPa | 0 mm | - | 23 W/m² | - |
| 1787723643 | 25.56° C | 46% | 1013.6 hPa | 0 mm | - | 14 W/m² | - |
| 1787723104 | 26.11° C | 44% | 1013.5 hPa | 0 mm | - | 14 W/m² | - |
| 1787722563 | 26.11° C | 44% | 1012.6 hPa | 0 mm | - | 5 W/m² | - |
| 1787722023 | 25.56° C | 46% | 1012.2 hPa | 0 mm | - | 2 W/m² | - |
| 1787721484 | 25.56° C | 46% | 1013.6 hPa | 0 mm | - | 0 W/m² | - |
| 1787720943 | 25° C | 48% | 1013.8 hPa | 0 mm | - | 0 W/m² | - |
| 1787720403 | 25° C | 48% | 1013.8 hPa | 0 mm | - | 0 W/m² | - |
| 1787720044 | 25° C | 48% | 1013.8 hPa | 0 mm | - | 0 W/m² | - |
| 1787719503 | 25° C | 48% | 1013.7 hPa | 0 mm | - | 0 W/m² | - |
| 1787718963 | 25° C | 48% | 1014.3 hPa | 0 mm | - | 0 W/m² | - |
| 1787718423 | 24.44° C | 50% | 1014.7 hPa | 0 mm | - | 0 W/m² | - |
| 1787717884 | 24.44° C | 50% | 1014.9 hPa | 0 mm | - | 0 W/m² | - |
* Rain latest hour (hover to see other rain measurements)
** Current wind speed in m/s (hover to see current wind gust speed)